Location: Arpaise
(41.0333°N, 14.7333°E)
Time: 21:24:16
(UTC+00:00)

Cosmos 846 Rocket - Pass Details

Date: 24 January 2021
Orbit: 948 x 991 km, 82.9° (Epoch: 06 March)

Event Time Altitude Azimuth Distance (km) Brightness Sun altitude
Rises 16:35:34 0° 140° (SE) 3,665 8.3 -5.6°
Reaches altitude 10° 16:38:56 10° 121° (ESE) 2,714 7.5 -6.2°
Maximum altitude 16:42:51 18° 82° (E) 2,198 6.8 -6.9°
Drops below altitude 10° 16:46:46 10° 42° (NE) 2,706 7.3 -7.6°
Sets 16:50:05 0° 24° (NNE) 3,650 8.1 -8.2°
